Theta_e
344 341 341 341 342 343 342 342 341 341 342 343 342 341 339 339 339 340 341 341 341 340 340 340 340 339 338 337 336 339 341 340 339 339 339 338 337 337 338 338 336 333 330 329 326 324 323 322 322 322 323 323 323 324 327 331 334 334 332 332 330 329 333 335 335 336 337 336 335 332 331 330 329 329 331 333 335 338 340 340 340 340 339 338 338
344 341 341 341 342 343 342 342 341 341 341 343 342 341 340 338 339 340 341 341 341 340 340 340 339 339 338 337 336 337 339 339 338 337 338 338 337 337 338 337 335 334 334 331 326 323 322 321 320 320 321 321 323 323 322 323 328 332 333 332 330 331 334 335 336 336 337 337 337 335 332 331 329 328 327 327 328 330 334 337 338 339 339 339 338
345 341 341 341 342 343 342 342 341 341 342 342 343 341 339 339 340 340 340 340 340 340 340 339 339 339 338 337 335 335 336 337 337 337 337 337 337 337 337 336 335 335 336 333 327 324 323 321 319 318 317 317 318 321 323 321 321 325 330 333 331 331 334 335 335 336 337 337 338 337 334 334 334 333 332 330 329 328 327 330 332 335 337 338 338
345 341 340 342 342 343 343 343 342 342 342 343 342 340 339 339 339 340 340 340 340 340 340 340 339 339 337 336 335 334 335 336 337 337 336 336 336 336 337 335 334 334 334 331 325 321 319 318 318 316 315 316 313 314 322 324 321 321 325 331 332 331 333 335 336 336 337 337 338 337 337 337 337 337 336 335 333 331 328 329 329 329 332 335 337
345 341 340 342 342 343 343 343 343 342 342 343 342 340 339 338 339 339 339 340 341 340 340 339 339 339 337 335 334 334 334 335 336 336 335 335 335 336 335 335 334 333 332 327 322 320 317 314 315 314 313 315 312 311 318 323 323 321 320 326 332 332 333 335 336 336 337 337 338 337 337 336 336 336 337 336 335 332 330 332 331 329 328 330 332
343 341 340 342 343 344 343 344 343 342 342 343 342 340 338 339 338 338 339 340 340 340 340 339 338 338 336 335 334 333 334 334 334 334 334 334 334 334 335 335 334 334 331 326 324 323 318 314 314 312 310 310 308 309 315 321 324 323 320 321 329 332 333 335 335 335 336 336 337 337 336 335 335 335 335 335 335 332 330 331 333 332 330 328 329
343 342 340 341 343 343 344 344 343 343 343 343 343 340 339 339 338 339 339 339 339 340 339 339 337 337 336 335 334 333 333 333 332 332 332 333 334 334 335 335 335 334 330 327 328 325 320 315 314 310 305 303 302 304 307 312 317 320 318 317 325 330 333 334 334 334 335 336 335 336 335 335 334 333 333 333 332 330 328 330 332 332 332 330 329
343 342 341 341 342 343 344 344 343 343 343 343 342 340 340 339 339 339 338 338 338 339 339 338 337 337 336 334 334 333 332 331 332 332 332 333 333 334 334 335 334 332 328 327 328 325 321 316 314 308 301 300 300 301 301 302 305 307 310 315 323 329 332 333 333 333 334 335 334 335 334 334 333 333 333 330 327 325 328 330 331 332 333 332 331
343 342 341 342 342 342 343 344 343 343 343 343 342 341 340 339 339 338 338 338 338 339 338 338 336 336 335 333 333 332 331 329 330 330 331 333 333 334 333 333 332 329 327 329 328 325 322 316 314 308 299 300 300 300 301 300 301 300 306 317 325 329 332 332 332 332 333 334 333 333 333 332 333 333 333 330 324 323 328 330 331 331 332 333 331
343 343 341 342 343 342 343 343 343 343 343 342 342 341 340 340 339 338 338 338 337 338 337 337 336 335 334 333 333 332 331 327 326 327 331 333 332 333 333 332 330 327 328 330 328 324 321 315 313 308 299 299 300 300 300 301 301 304 314 323 327 330 330 331 332 331 332 333 333 332 331 331 332 332 332 330 324 323 327 329 330 331 332 333 332
343 344 342 343 344 343 342 343 342 342 343 342 342 341 341 340 339 339 338 337 337 337 337 337 335 334 334 335 334 333 333 329 326 327 331 333 333 333 332 331 328 327 329 330 328 325 321 315 312 308 300 299 300 301 301 301 301 308 320 326 328 329 329 330 330 330 331 332 332 331 330 331 332 332 331 328 323 321 326 330 331 331 333 333 332
343 343 342 343 343 343 342 342 342 341 342 342 342 342 341 340 339 339 338 337 337 337 337 336 334 334 335 336 335 334 333 332 330 330 332 332 333 334 332 329 327 328 330 330 328 326 322 316 312 308 301 299 301 301 301 302 302 310 322 326 327 327 327 328 329 328 330 331 331 330 328 330 332 332 330 326 323 321 322 326 328 329 330 329 327
343 342 342 342 343 343 342 342 342 340 341 342 342 342 341 341 340 339 338 337 336 337 337 336 334 334 335 335 335 334 334 334 332 332 332 332 334 333 331 330 329 329 330 330 329 327 325 319 314 309 302 299 300 302 302 302 304 310 319 324 324 323 324 326 328 328 329 330 330 328 327 329 331 330 328 325 324 324 322 321 321 322 323 322 319
342 341 341 341 341 341 340 341 342 340 341 341 341 341 340 340 340 340 339 338 336 336 337 336 334 333 333 335 335 334 334 335 334 333 333 333 333 332 331 331 330 330 330 330 329 328 325 321 316 311 304 299 300 302 302 302 304 310 316 321 323 325 326 326 328 328 329 330 329 328 326 328 330 330 329 327 326 325 324 321 315 313 314 315 313
340 340 340 339 339 338 339 340 341 340 340 341 340 340 340 340 340 340 339 338 337 335 336 336 334 333 332 334 335 335 334 335 334 334 333 333 333 332 332 332 331 331 330 330 329 328 326 322 317 312 307 301 299 301 302 301 303 310 316 321 324 326 326 325 326 327 327 328 329 328 326 328 329 330 329 329 327 325 325 322 315 311 311 313 315
339 340 339 339 338 337 338 340 341 340 340 339 338 340 340 340 340 340 339 338 338 336 335 335 335 334 333 334 335 335 334 334 334 334 334 333 333 333 333 333 332 331 330 330 329 328 326 323 318 313 309 302 299 300 301 301 302 306 312 318 321 323 324 324 324 326 326 327 327 327 326 328 329 329 329 327 326 326 322 320 318 315 315 317 318
338 339 338 338 338 338 339 340 340 339 339 339 338 339 339 339 339 340 339 338 338 337 335 334 334 334 333 334 334 334 333 334 333 334 334 334 333 333 333 333 332 332 331 330 329 328 326 323 318 314 311 305 300 300 300 301 301 302 305 309 312 314 318 319 322 324 324 325 325 326 325 327 329 328 328 326 325 323 316 318 320 318 319 320 320
337 337 338 337 337 339 339 338 338 338 338 338 337 337 338 338 339 339 339 338 338 337 335 334 333 333 333 333 333 333 333 333 333 333 333 334 333 333 333 333 332 331 331 330 328 328 326 322 318 315 313 307 301 299 300 300 300 301 301 302 304 306 309 312 315 318 322 324 322 323 325 325 327 327 326 324 323 317 313 319 322 321 322 321 321
333 334 335 337 337 338 337 336 337 336 336 336 336 336 336 337 337 338 339 339 338 337 336 334 332 332 332 332 331 332 332 333 333 332 332 333 333 333 333 333 332 332 331 330 328 328 326 322 319 316 315 311 304 300 299 300 300 301 300 301 301 302 304 304 306 308 315 317 313 316 323 324 324 325 325 324 322 316 314 321 323 322 323 322 322
325 327 329 335 338 337 337 336 336 336 335 334 335 335 336 335 336 336 337 338 338 337 336 334 332 331 331 331 331 331 331 331 332 332 332 331 332 333 333 333 332 331 330 329 328 328 326 323 321 319 317 315 310 305 301 299 300 300 300 301 300 301 301 300 300 301 304 305 302 309 319 322 322 323 324 324 324 319 316 320 322 323 323 322 322
319 320 323 329 334 337 337 336 336 337 336 336 336 337 337 337 336 335 335 336 337 337 336 335 333 331 331 330 331 331 330 331 332 332 332 331 331 332 332 332 332 331 330 329 328 327 326 325 323 322 320 319 317 313 308 303 300 299 300 300 300 301 300 300 300 300 300 299 299 302 308 315 319 322 324 323 324 322 320 320 321 322 323 322 322
317 318 319 321 326 332 336 336 337 337 337 338 338 338 339 339 337 336 335 335 336 336 335 336 334 333 332 331 331 331 332 333 334 333 333 331 331 331 331 332 330 330 330 329 328 327 326 325 324 323 322 321 320 318 316 312 308 302 299 299 300 300 300 300 300 300 300 299 299 299 300 305 309 316 321 321 320 322 322 321 321 321 322 322 321
317 317 317 318 320 324 330 333 336 337 338 338 339 339 339 339 338 337 336 334 335 335 335 336 335 335 334 334 333 333 334 335 335 334 334 332 331 331 331 331 330 330 329 329 328 327 325 325 324 323 322 322 321 320 318 316 315 310 302 300 300 300 300 299 299 299 299 298 298 298 298 298 301 309 316 315 313 318 323 322 321 321 321 323 322
316 317 316 316 317 319 322 326 331 334 337 338 338 338 338 338 337 337 337 336 335 335 335 336 336 336 336 336 335 335 335 335 335 335 334 333 332 331 331 331 330 330 329 329 328 327 325 324 324 324 323 322 321 320 318 317 317 314 307 302 301 300 299 299 299 300 299 298 297 297 298 297 301 307 314 313 310 313 319 322 322 321 322 323 323
316 316 316 316 316 316 318 321 325 330 335 337 337 337 337 338 338 337 337 337 337 336 336 336 337 336 336 336 336 335 335 335 335 335 334 333 332 332 331 331 330 329 329 329 329 327 326 325 324 324 324 322 320 319 317 316 316 315 311 307 306 304 302 300 299 301 301 301 299 297 297 296 298 305 313 315 311 309 312 319 324 322 322 323 322
315 315 316 316 316 315 316 317 320 325 332 336 336 336 336 337 338 337 337 338 337 337 337 337 337 337 336 336 336 335 334 335 335 334 334 334 333 333 332 331 330 329 329 330 329 328 327 325 324 325 324 321 319 318 317 316 314 314 313 311 310 309 307 304 301 302 303 303 302 299 297 297 295 300 310 314 313 311 310 316 322 322 322 322 322
315 315 316 315 315 316 317 317 317 320 329 334 335 335 336 336 337 337 337 337 337 337 336 337 337 336 336 335 335 335 334 334 334 334 333 333 333 332 332 332 331 331 330 330 330 329 327 325 324 325 324 322 320 319 319 318 315 314 313 312 311 310 309 308 306 305 305 305 304 303 300 298 296 296 303 309 311 311 311 313 317 319 320 321 321
314 314 315 314 314 318 319 319 318 317 326 333 334 334 335 336 336 336 336 336 336 336 335 335 335 335 335 335 335 335 334 334 334 334 333 332 332 332 332 332 331 331 330 330 330 329 327 325 325 325 324 322 321 320 320 319 318 316 315 313 312 311 311 309 308 308 307 306 305 304 303 300 299 297 298 302 303 305 306 308 311 314 316 315 314
313 313 314 314 315 318 320 321 318 317 325 331 332 333 334 335 335 335 335 335 335 334 334 334 334 334 334 334 334 334 334 334 334 333 333 332 332 331 331 331 331 331 330 330 330 328 327 325 326 325 323 322 321 320 320 320 319 317 316 315 314 312 312 310 309 308 307 306 305 304 304 303 302 300 298 298 298 298 300 301 305 307 308 307 307
313 314 315 315 316 318 321 322 321 322 326 330 331 332 333 334 334 333 333 333 333 332 332 331 332 332 332 332 332 332 332 332 332 332 332 332 331 331 330 331 330 330 329 329 328 328 327 326 325 324 323 322 321 320 320 319 319 319 317 315 315 313 312 311 309 308 307 306 305 304 304 304 303 301 300 300 299 298 298 297 299 302 303 304 307
313 315 316 316 317 318 321 324 325 326 327 330 332 332 332 333 332 331 331 331 330 330 330 329 329 329 329 329 329 330 330 330 331 331 331 331 330 330 330 330 329 328 328 328 327 328 327 326 325 324 324 322 320 320 320 319 319 318 318 317 315 313 312 311 310 309 308 306 305 304 303 303 302 301 301 301 299 299 299 299 298 299 300 303 307
314 315 316 317 318 319 322 325 326 327 328 330 331 330 330 331 330 330 330 329 328 328 329 328 328 327 326 327 328 329 330 330 330 330 329 329 329 328 328 328 327 327 327 327 327 327 326 326 326 325 325 322 320 320 320 319 319 318 318 317 314 313 312 310 309 308 307 306 304 302 300 300 301 301 301 300 300 300 301 301 299 299 299 301 307
315 316 317 318 319 320 322 325 326 327 328 329 330 329 328 329 329 329 328 327 327 328 327 327 327 325 326 326 327 329 329 329 329 328 327 327 327 326 326 326 325 326 326 326 326 325 325 325 324 324 324 323 321 321 320 319 318 317 317 316 314 312 310 308 307 306 305 303 301 300 300 300 300 300 300 300 301 300 301 302 300 300 299 300 306
316 316 318 319 320 321 322 324 326 327 327 328 328 328 327 327 328 328 327 326 326 327 325 324 324 324 325 325 326 327 328 328 327 327 326 326 326 325 325 324 324 324 324 324 324 324 324 324 323 323 323 322 321 321 321 319 317 317 316 314 313 310 308 306 305 304 303 301 300 301 301 301 300 299 297 298 298 299 300 301 301 301 301 302 305
316 317 319 319 320 321 321 323 325 325 325 326 328 328 326 325 326 326 325 325 325 324 322 321 322 323 324 324 325 325 326 326 326 326 325 324 325 324 324 323 323 323 323 323 323 322 322 321 321 321 321 321 321 321 320 319 317 316 314 311 310 308 306 305 303 302 302 301 300 301 300 300 299 295 293 293 294 294 295 296 297 298 300 302 304
316 317 318 319 320 321 321 322 323 324 324 325 326 325 323 323 324 323 323 324 323 321 320 320 321 322 322 323 323 322 323 324 324 323 323 323 323 322 321 320 321 321 321 320 320 320 320 319 317 318 318 318 318 319 319 319 317 314 312 309 307 306 305 303 302 301 300 299 299 299 298 297 295 291 290 290 290 291 291 292 292 294 296 299 302
317 317 318 319 320 320 321 322 322 323 323 323 323 322 321 322 322 321 321 322 321 320 319 318 319 319 320 320 319 320 320 321 320 320 321 321 320 319 319 318 319 319 317 316 316 315 316 315 314 314 314 315 315 316 316 316 314 311 309 308 306 305 304 302 301 300 297 296 297 295 293 292 291 289 289 290 289 290 290 290 290 290 292 293 297
317 318 318 319 320 320 320 321 320 321 322 322 321 321 320 319 319 319 320 320 318 317 316 317 318 318 317 316 316 317 317 317 317 318 319 318 317 317 316 316 316 316 315 313 311 310 311 311 310 309 309 310 312 312 313 312 310 308 307 305 305 304 302 301 301 298 292 292 293 291 290 290 289 289 289 289 289 289 289 290 290 289 290 289 291
317 317 318 318 319 319 319 319 320 320 320 320 320 319 318 317 317 318 317 316 315 314 314 314 315 315 314 312 314 315 314 314 314 316 316 315 315 314 314 313 313 313 312 310 307 305 304 303 302 302 302 304 307 308 309 310 308 306 305 304 303 303 302 302 302 298 293 292 291 290 290 290 289 289 289 289 289 289 289 289 290 289 289 289 289
315 315 316 316 316 317 317 316 317 317 316 317 318 317 316 316 316 315 313 312 312 312 312 313 313 313 311 311 313 313 313 313 312 313 314 314 313 312 312 311 311 311 310 307 304 299 296 296 296 296 298 300 304 306 306 308 307 304 303 303 302 302 301 301 301 298 296 295 294 291 290 290 290 289 288 289 289 289 289 289 289 289 289 289 289
312 313 314 313 313 315 315 313 313 314 315 316 316 315 315 315 312 312 311 309 310 311 311 311 312 311 310 311 312 312 312 311 311 312 312 312 311 310 310 310 309 310 308 306 304 297 293 293 293 294 295 296 299 303 305 307 305 302 302 302 301 301 301 300 299 297 297 296 295 293 290 290 291 291 288 288 288 288 289 288 289 289 289 289 289
310 311 312 311 310 312 312 310 309 311 314 315 314 314 316 315 313 312 311 308 308 310 310 310 310 310 309 310 310 310 310 310 309 310 309 309 308 307 307 307 307 307 305 304 304 300 295 293 292 293 293 292 294 298 304 306 304 301 300 299 299 298 297 297 297 296 295 295 294 293 291 289 291 292 289 287 288 288 288 288 288 289 288 288 288
309 310 311 310 309 309 311 311 309 310 312 313 314 314 314 314 314 312 311 308 305 307 308 307 307 308 307 308 308 308 308 307 306 305 305 303 302 302 302 304 305 305 305 304 303 301 297 294 292 292 292 292 291 293 298 302 303 303 302 301 300 300 298 294 294 294 292 292 292 292 291 289 289 290 289 287 287 287 287 288 288 289 289 288 288
309 309 310 309 309 310 311 311 310 309 310 311 313 315 312 312 312 309 309 308 303 303 304 303 304 305 304 304 305 304 304 302 301 300 299 298 298 297 298 299 300 301 300 299 298 296 295 293 292 291 291 291 290 290 292 295 298 300 301 300 298 300 299 293 291 292 291 290 290 291 291 289 287 288 289 288 287 287 287 288 288 288 289 288 288
308 308 309 309 309 309 310 309 309 308 308 309 312 313 310 307 306 304 304 303 299 299 300 298 299 300 300 300 300 300 299 298 297 296 296 295 294 294 293 293 293 294 293 293 292 292 291 291 290 290 290 290 290 289 290 290 292 293 295 295 294 295 296 292 291 291 290 289 289 290 290 288 286 287 289 288 286 287 287 287 288 288 288 289 289
307 308 308 308 309 309 308 308 308 307 307 308 310 310 309 306 304 301 299 297 295 296 297 296 296 297 297 297 297 296 296 295 294 293 293 292 292 291 291 291 291 290 290 290 289 289 289 289 289 289 289 289 289 289 289 289 289 290 291 293 293 293 293 291 291 291 290 289 288 289 289 287 286 287 288 287 286 286 287 287 287 288 288 288 289
305 306 307 307 308 308 307 307 307 306 306 306 307 308 307 306 305 301 298 296 294 294 294 294 294 294 294 294 294 293 293 292 292 291 291 291 291 290 290 290 290 289 289 289 289 288 288 288 288 288 288 288 288 288 288 288 288 289 290 291 291 291 291 290 290 290 290 289 287 288 288 286 286 286 286 286 286 286 287 287 287 288 288 288 289
304 304 305 306 307 307 307 307 306 305 305 305 305 307 306 304 302 299 297 296 295 292 292 292 292 292 292 292 291 291 291 290 290 290 290 290 290 290 290 290 289 289 289 289 288 288 288 288 288 288 288 287 288 287 287 287 287 287 288 289 289 289 289 289 288 287 289 290 289 288 286 285 286 286 286 285 286 286 287 287 287 288 288 288 288
303 303 304 305 306 306 306 306 306 305 304 304 304 304 304 302 300 297 295 294 293 291 291 291 290 291 290 290 290 289 289 289 289 289 289 289 289 289 289 289 289 288 288 288 287 287 287 287 287 287 287 287 287 287 287 286 286 286 286 287 287 287 287 287 286 285 286 289 289 287 286 285 285 285 285 285 286 286 286 286 287 288 288 288 289
302 302 303 303 304 305 305 305 304 304 303 302 301 300 300 299 298 297 294 291 290 289 289 289 289 289 289 288 288 288 288 288 288 288 288 288 288 289 288 288 288 288 288 287 287 287 287 287 287 287 287 286 286 286 286 286 286 285 286 285 286 286 286 286 285 285 285 287 287 286 286 285 284 285 285 284 285 286 286 286 287 288 289 289 288
301 301 302 302 303 303 304 304 302 301 301 300 299 298 298 298 297 296 294 291 290 289 288 288 288 288 288 287 287 287 288 288 288 288 288 288 288 288 288 288 288 287 287 287 287 287 287 286 286 286 286 286 286 285 285 285 285 285 285 285 285 286 286 286 285 285 285 285 286 285 285 284 284 284 284 284 284 285 285 286 287 287 287 286 286
Wind_Speed
12 13 14 13 12 11 11 11 11 11 12 11 11 11 12 14 14 16 17 17 15 15 15 15 15 15 15 14 14 16 16 16 17 16 16 17 17 16 16 17 17 18 19 19 18 18 17 16 15 14 14 14 14 14 14 14 14 15 16 16 17 17 17 18 19 19 18 18 18 17 17 18 18 18 17 17 17 17 19 19 18 18 18 15 14
13 14 14 13 12 11 10 10 10 11 11 11 11 11 12 13 14 15 15 15 14 14 14 14 15 14 14 14 14 14 15 16 16 15 15 15 15 15 15 18 19 18 18 18 18 18 17 16 15 13 12 11 11 11 11 12 12 13 14 15 16 16 17 18 18 18 17 15 16 16 16 18 18 18 17 17 17 16 16 17 17 19 18 16 14
14 15 14 13 13 11 10 9 10 10 10 10 10 10 11 12 13 14 14 14 14 14 14 14 14 14 13 13 13 14 15 15 15 14 14 14 14 15 16 17 18 18 17 17 17 17 17 16 15 14 12 11 10 9 9 10 11 11 12 13 14 15 16 17 17 17 15 13 14 14 15 16 16 16 16 17 17 17 15 14 15 17 17 17 15
15 15 15 13 13 11 10 9 10 10 10 10 10 10 11 11 12 13 13 13 13 14 13 13 13 13 13 12 13 14 15 15 14 13 13 13 13 14 15 16 17 17 17 17 17 17 17 16 15 14 12 10 9 8 7 7 8 9 10 12 13 14 15 16 17 17 14 13 12 12 14 15 15 15 15 16 17 17 16 15 14 14 15 15 15
14 15 15 14 13 12 10 9 9 9 9 9 10 10 10 10 10 11 13 14 13 13 12 12 12 12 12 12 12 14 14 14 14 13 12 12 12 14 15 16 18 18 17 18 19 19 19 17 15 14 11 9 9 8 6 6 6 8 9 10 12 13 14 15 16 17 14 13 12 12 13 13 14 15 15 15 16 17 17 16 16 14 14 14 14
12 13 16 14 13 12 10 10 9 9 9 9 9 10 10 10 9 10 11 12 12 12 11 11 11 12 12 12 12 13 13 13 13 12 12 12 12 14 15 17 18 18 17 18 20 21 21 19 17 15 12 10 9 8 7 6 5 6 8 9 11 13 14 14 15 15 14 13 12 11 12 13 14 14 15 14 14 16 17 16 15 15 15 15 15
10 12 16 14 12 12 10 9 9 9 9 9 10 10 10 9 9 10 10 10 11 11 10 10 11 11 11 12 12 12 12 13 12 12 11 11 13 14 15 17 18 17 17 18 20 22 21 20 18 15 13 11 10 9 9 7 6 6 7 9 11 13 14 14 14 15 14 13 13 12 12 12 14 15 14 13 14 15 16 16 15 15 15 15 15
9 11 15 15 12 12 11 10 10 10 10 10 10 10 9 9 9 9 9 9 10 11 10 10 10 11 11 11 11 12 12 12 11 11 11 12 13 13 13 15 16 15 16 18 20 22 22 20 18 15 13 11 11 11 10 9 8 7 8 11 13 13 12 15 16 17 16 14 14 13 12 12 13 14 13 13 13 13 14 14 14 13 14 14 14
9 12 14 14 11 11 11 10 10 10 10 9 10 10 9 9 9 9 9 9 9 10 10 9 9 10 10 10 11 11 12 12 11 11 11 11 12 12 11 12 12 13 15 18 20 22 21 20 18 15 13 12 12 12 12 11 10 10 12 13 13 12 13 15 16 17 17 15 15 14 12 12 12 13 14 14 13 13 13 13 13 13 12 12 13
12 12 11 11 10 11 11 9 9 9 9 9 10 9 9 9 9 8 9 9 9 9 9 9 8 9 9 9 9 10 10 11 11 11 11 10 10 10 10 10 11 13 16 18 21 22 21 20 18 15 13 13 13 13 14 13 12 13 15 15 14 13 13 13 14 15 16 15 14 14 14 14 14 14 15 14 15 15 14 14 13 12 12 12 12
13 12 9 10 10 10 10 9 9 9 9 8 9 9 8 8 8 8 8 8 9 9 10 9 8 8 8 7 8 9 9 11 11 11 11 10 9 10 9 9 11 13 16 19 22 22 22 21 19 15 13 13 14 14 15 15 13 14 16 15 13 13 12 12 12 12 14 15 14 14 14 15 15 15 14 14 14 14 14 14 13 12 12 12 12
13 12 10 11 10 9 9 9 8 8 8 8 9 9 8 8 8 8 8 8 8 9 9 9 8 8 7 6 6 7 8 10 10 10 9 9 9 10 10 10 12 14 16 20 22 22 22 21 20 16 13 13 14 15 16 16 15 15 16 14 12 12 11 12 12 11 13 14 14 13 13 15 14 13 13 14 13 14 13 12 12 12 12 12 12
14 12 11 11 10 9 8 8 7 7 7 8 8 8 7 7 7 7 8 8 8 8 8 8 8 7 6 5 5 6 7 8 9 9 8 8 9 10 10 11 11 14 17 19 21 22 22 21 21 17 13 13 13 14 15 16 16 15 14 13 12 12 12 13 11 10 12 13 13 12 12 14 14 12 13 13 13 14 13 11 10 10 11 11 11
15 13 11 10 8 8 6 7 8 7 7 7 6 7 7 5 6 7 8 8 8 8 8 8 8 7 6 5 4 5 5 7 8 7 7 7 8 9 10 9 10 12 16 18 19 21 22 21 20 18 14 12 13 14 15 15 15 14 14 13 13 14 14 13 10 10 12 12 12 12 12 13 13 13 13 13 13 13 13 13 11 11 11 11 11
15 13 12 10 7 6 5 7 9 8 8 7 6 6 6 6 5 6 8 8 8 8 8 8 8 6 5 4 3 4 5 6 6 6 7 7 7 9 9 8 8 11 14 16 18 20 21 20 20 19 16 12 13 13 14 15 14 13 13 13 12 12 12 11 9 8 10 11 11 11 12 13 11 11 12 12 12 11 12 14 14 13 12 12 12
14 13 13 12 8 6 6 8 10 9 8 8 7 6 6 7 6 6 7 8 8 8 8 8 7 6 5 4 3 4 5 5 5 5 6 6 7 8 8 7 7 10 13 15 16 18 19 20 19 19 17 13 12 13 13 14 14 12 11 10 9 9 9 8 8 7 7 8 9 9 10 13 13 11 11 11 11 12 12 13 13 14 13 13 13
13 13 13 12 10 9 8 9 9 8 6 6 6 7 6 7 7 7 7 8 8 8 8 8 7 6 5 4 3 3 5 5 5 5 5 6 6 6 6 5 6 8 11 13 14 17 18 19 19 18 17 14 12 12 13 13 13 12 11 9 7 7 6 6 6 6 6 6 6 6 7 10 13 13 12 11 11 12 12 12 12 13 13 13 12
12 11 12 12 11 11 11 10 10 9 8 6 6 6 6 6 7 7 8 8 9 9 8 8 7 6 5 4 4 3 3 5 5 4 5 5 5 5 4 4 5 6 8 11 13 15 16 18 18 18 17 15 13 12 12 12 12 12 11 9 9 8 7 6 6 5 4 4 5 4 6 8 9 11 11 10 11 11 11 12 12 13 13 12 12
10 10 10 11 11 11 12 12 12 11 11 10 8 7 7 7 6 7 8 9 9 10 9 8 6 5 5 4 4 3 3 3 4 4 4 4 4 4 3 3 3 5 6 8 11 13 15 17 17 17 18 17 14 12 11 11 11 11 10 10 10 10 9 8 8 7 5 5 5 4 6 7 7 10 11 10 11 11 12 12 12 13 13 12 12
9 8 9 12 12 11 12 13 13 12 12 12 10 9 8 8 8 8 8 9 9 9 9 8 6 5 5 4 4 3 3 3 3 2 3 3 4 3 3 2 3 4 5 7 9 11 13 15 16 17 17 17 16 13 12 11 11 11 10 10 10 10 10 10 10 9 8 7 7 5 5 4 6 10 11 10 11 11 12 12 12 12 13 13 12
9 8 8 10 12 13 13 13 13 12 12 12 11 11 9 9 9 9 9 9 8 8 9 7 6 6 5 5 4 3 3 3 3 3 3 4 4 4 4 3 3 3 4 6 9 10 12 12 14 16 17 17 16 15 13 12 11 10 10 10 9 10 11 10 10 10 10 9 9 7 5 3 4 8 9 10 10 11 12 12 11 10 11 13 12
8 7 7 8 10 13 15 15 14 13 13 12 11 10 9 8 8 9 10 10 9 8 8 7 7 6 5 5 4 3 3 3 3 4 4 5 5 5 5 4 3 3 3 5 8 10 10 11 13 15 15 15 16 15 15 14 12 11 10 10 9 10 10 10 10 10 10 10 10 9 8 5 5 7 8 8 9 10 11 11 11 10 10 11 12
6 5 5 6 7 11 14 15 16 15 14 13 11 9 7 5 5 7 8 9 9 8 8 8 8 7 6 5 4 4 4 4 3 3 4 5 6 6 6 5 4 4 4 5 8 9 9 10 12 13 13 13 14 14 14 14 13 12 10 10 10 10 10 10 10 10 11 11 11 10 9 8 7 7 8 8 7 9 9 9 11 11 11 10 10
6 4 2 4 6 8 11 13 15 16 15 14 11 9 7 4 3 4 7 8 8 8 7 8 8 7 6 6 5 5 5 4 4 4 4 5 6 6 5 6 5 6 6 7 9 9 9 8 9 11 11 11 12 12 12 13 12 11 10 10 11 11 11 11 11 11 12 12 12 12 11 10 9 10 10 9 8 8 8 8 9 10 10 9 8
4 3 2 2 4 7 8 10 12 14 16 16 13 10 7 6 5 4 6 8 7 8 7 7 6 6 6 6 6 5 5 5 6 6 4 6 6 6 5 6 5 6 8 8 9 10 10 8 7 9 9 9 10 10 11 12 12 11 11 11 11 11 12 12 11 12 13 13 13 12 11 10 10 11 12 11 10 9 7 7 8 8 8 8 7
2 2 1 4 4 3 5 6 9 12 16 17 14 12 8 6 9 7 7 9 9 9 8 8 7 7 7 7 7 6 6 6 6 6 5 7 6 5 5 5 5 5 6 7 8 9 10 9 8 7 7 8 9 9 11 13 13 12 12 13 12 12 12 11 11 13 14 14 14 13 12 11 10 10 12 13 13 12 10 8 7 8 8 7 7
3 2 1 3 2 5 5 5 7 10 15 18 14 12 8 6 11 12 11 12 12 12 10 10 10 9 9 8 7 8 7 7 7 6 6 7 6 5 4 5 5 5 5 5 6 8 9 10 9 7 7 9 9 9 12 13 13 13 13 14 14 13 13 12 12 13 14 14 14 14 13 12 11 11 12 13 13 13 12 10 9 9 10 9 9
3 3 3 3 5 7 6 4 6 9 14 18 15 10 7 8 12 14 15 14 14 13 12 11 10 9 9 8 8 9 9 9 9 7 7 8 8 7 6 7 6 5 6 6 5 7 11 11 8 7 7 9 9 9 11 11 12 12 12 13 13 13 14 13 12 12 13 13 14 14 14 13 13 12 11 12 11 11 11 11 11 10 9 10 10
4 5 5 5 6 7 7 6 6 10 14 17 13 9 9 11 12 15 16 15 13 12 10 8 8 8 9 9 8 9 9 8 8 7 8 9 9 9 9 9 8 8 8 7 6 8 11 10 7 6 7 7 7 7 7 9 11 11 10 11 12 12 13 13 12 11 12 12 13 13 13 13 14 13 12 12 11 11 11 11 11 11 10 10 11
5 6 6 6 6 7 8 8 7 10 14 14 11 11 14 14 13 15 16 14 13 12 10 9 8 8 8 7 7 8 8 7 7 6 6 8 9 9 9 10 10 9 9 8 7 7 8 8 7 8 7 7 7 5 5 8 10 11 11 11 11 10 11 13 12 11 11 11 12 12 13 14 14 13 13 14 14 13 13 12 12 12 12 13 14
6 7 6 6 6 7 9 9 9 10 11 13 15 17 17 17 16 15 15 14 14 12 10 9 9 9 9 8 7 8 8 7 7 6 5 7 9 10 11 11 10 9 8 8 8 7 7 6 6 7 6 6 9 8 7 8 11 12 12 12 11 10 11 12 12 11 11 11 12 12 13 14 14 14 15 16 16 15 15 14 13 13 14 15 16
6 7 7 7 7 8 9 10 12 12 14 17 19 19 19 19 17 16 15 14 13 12 11 10 10 11 11 11 10 10 9 8 7 7 8 9 11 11 11 11 10 10 8 8 8 7 6 5 5 6 3 3 8 10 9 7 10 11 11 11 11 10 10 11 11 11 12 13 13 14 14 14 15 15 16 16 16 16 16 16 14 14 14 14 17
8 7 8 8 9 10 10 12 15 15 17 20 20 20 20 19 17 15 14 13 12 12 11 11 11 12 12 12 13 12 11 10 10 10 11 12 12 12 12 11 11 10 8 8 7 7 6 6 6 5 4 3 6 7 7 7 9 9 9 10 10 9 10 11 11 12 14 16 16 16 16 16 17 17 17 16 16 15 15 15 14 14 13 13 16
9 8 9 9 10 11 11 13 15 15 16 20 20 19 18 18 17 15 13 12 12 11 12 13 13 13 12 12 12 12 12 12 11 11 12 13 13 13 13 13 12 11 10 9 9 9 8 8 8 6 5 5 6 5 5 8 9 8 9 11 10 10 11 12 13 14 16 17 17 18 19 19 19 19 18 17 16 16 15 14 14 13 12 13 15
10 10 11 11 10 11 12 13 15 15 16 18 18 16 17 19 17 16 15 12 11 11 13 13 13 13 12 12 12 13 13 13 11 12 13 14 14 14 14 13 11 10 9 9 10 10 9 9 9 7 7 7 6 5 5 6 7 9 11 12 12 12 13 14 15 16 16 16 18 19 19 19 19 20 20 20 19 18 17 16 16 15 13 13 16
11 11 12 13 12 11 13 15 16 16 17 19 19 18 19 19 18 18 16 13 12 14 15 15 15 14 14 15 14 14 15 14 13 14 14 14 14 14 14 12 11 10 11 11 12 12 10 10 10 8 8 8 7 7 6 6 8 10 12 12 13 13 14 15 16 17 16 16 18 18 18 19 20 21 23 23 22 21 20 20 19 18 17 16 18
13 13 13 15 15 13 13 15 17 17 17 19 21 21 21 20 20 19 17 14 15 17 18 18 17 17 16 17 16 16 16 16 16 16 16 16 16 17 16 14 13 14 16 16 16 15 13 12 12 10 8 8 8 8 8 10 12 13 13 14 14 15 16 17 17 17 18 18 18 19 20 21 21 23 24 24 24 22 22 22 22 21 21 20 21
14 15 14 14 16 17 16 15 17 20 20 20 22 22 22 23 22 20 17 17 19 21 21 21 20 19 19 19 19 19 19 19 18 17 17 18 19 19 18 17 16 17 18 18 18 16 13 13 13 11 9 8 7 8 10 13 15 16 17 17 16 16 17 17 16 17 21 22 20 20 21 22 23 23 24 24 24 23 22 23 22 22 22 22 22
16 16 16 15 16 18 18 17 18 20 21 21 21 21 23 24 23 21 20 22 23 23 23 22 22 21 21 21 21 21 21 20 19 18 19 20 20 20 20 19 18 18 19 19 19 17 16 15 15 14 13 11 9 10 11 13 16 19 20 19 18 17 16 15 14 15 18 20 20 20 19 19 22 23 23 23 23 23 22 22 22 22 22 22 22
18 18 18 18 19 20 20 21 21 22 23 22 22 23 25 24 24 25 25 24 24 23 22 22 22 21 21 21 20 20 20 20 19 18 19 20 20 20 20 19 18 18 19 20 20 20 20 20 19 19 18 16 14 13 14 15 20 22 22 21 19 17 16 14 14 13 13 15 17 19 19 18 19 22 23 22 23 22 21 20 20 20 20 21 21
20 20 21 22 23 23 22 22 22 23 24 24 25 26 26 26 27 26 25 24 22 21 22 21 20 20 20 19 19 19 19 19 18 17 18 18 19 19 19 19 18 18 19 20 20 20 21 21 21 20 20 22 20 15 15 20 23 23 22 22 22 19 16 15 14 12 12 12 13 16 19 19 17 19 21 22 22 22 20 19 18 18 20 20 20
21 21 23 23 23 22 22 21 20 21 23 25 27 27 26 26 25 24 24 23 21 19 20 20 19 19 19 18 18 18 18 18 17 17 17 18 19 20 20 20 20 21 22 21 19 19 19 19 20 21 22 25 26 20 15 17 17 16 17 17 17 17 16 16 15 13 12 12 12 14 16 19 17 15 18 21 22 21 19 18 17 17 19 20 20
22 23 24 24 24 23 22 21 20 21 23 24 25 25 23 21 20 22 23 22 21 20 20 21 20 20 20 19 19 18 18 19 19 19 20 21 22 23 23 23 22 22 22 21 19 18 17 18 19 21 22 24 26 24 18 14 12 11 11 8 6 6 8 12 12 11 12 12 12 13 14 17 17 14 15 20 21 20 19 17 16 15 16 19 20
23 24 25 25 25 24 23 23 20 20 21 22 22 22 21 20 21 23 23 22 23 22 22 22 21 22 22 21 21 21 21 22 23 23 25 25 25 26 25 25 24 22 21 22 21 19 18 19 20 20 21 23 24 24 22 18 13 9 5 2 1 2 2 5 9 5 8 12 13 13 13 15 18 15 15 18 20 19 17 17 15 13 14 16 18
24 25 26 26 26 26 25 24 22 20 20 20 21 22 23 25 26 26 25 25 25 24 25 25 24 25 25 25 24 24 25 26 26 26 26 26 26 26 25 25 25 24 23 24 24 22 21 21 21 21 22 23 23 23 21 21 19 14 9 5 3 2 1 5 7 2 5 9 11 11 11 15 18 15 14 16 19 19 16 15 14 13 13 14 14
24 25 25 25 26 26 25 24 23 22 21 21 21 23 25 27 28 29 29 30 27 26 27 28 28 28 28 28 28 27 27 27 27 26 26 26 26 26 26 26 26 25 25 25 25 24 23 22 21 22 22 21 21 22 21 19 19 18 16 12 8 4 0 4 3 3 6 6 9 9 9 15 18 14 13 15 17 18 15 14 14 11 12 13 12
24 24 24 24 25 25 24 24 23 22 22 22 23 25 26 27 28 29 31 31 30 28 29 30 30 31 30 30 29 28 27 27 27 26 26 26 26 26 26 26 26 26 25 25 25 23 23 22 21 21 21 19 19 21 19 16 16 16 14 12 10 8 5 5 4 2 4 5 10 11 11 16 18 15 15 15 17 16 13 13 13 11 11 13 12
25 24 24 24 25 24 23 22 21 22 22 23 25 26 27 29 29 30 31 31 32 32 31 31 31 31 31 30 30 29 27 27 27 27 26 26 26 26 25 25 25 25 24 24 24 22 21 21 19 19 19 19 18 19 17 15 14 13 11 10 9 8 6 6 6 4 1 3 9 9 12 18 16 15 16 16 16 14 12 12 13 12 10 12 12
25 24 25 25 24 23 23 22 22 22 23 25 27 27 28 29 31 33 33 32 33 34 33 33 32 32 32 31 30 30 29 28 28 27 27 26 25 25 24 24 24 24 23 23 22 21 20 19 18 18 18 18 17 16 16 14 13 11 9 8 6 5 4 4 6 7 3 2 3 5 13 17 15 15 14 14 14 11 11 11 12 12 10 11 12
25 24 25 25 25 24 24 25 25 25 26 27 27 27 27 30 33 35 36 35 35 35 34 33 33 32 33 32 31 31 30 29 28 27 26 25 24 24 23 23 23 23 22 21 20 19 18 17 17 16 16 16 15 14 14 13 11 10 8 7 6 5 4 3 6 9 5 2 3 7 13 14 13 14 14 14 12 10 11 10 10 11 9 10 12
25 25 25 25 26 26 27 28 27 27 28 27 25 24 26 29 33 36 37 38 37 37 36 35 34 34 34 33 32 31 30 29 28 26 25 24 23 22 22 22 22 21 20 19 18 17 17 16 15 15 14 15 14 13 13 11 10 9 8 6 6 5 4 3 5 6 4 4 4 7 13 15 14 14 15 15 11 11 10 7 9 11 10 12 14
Wind_Direction
165 164 156 153 145 137 133 129 127 118 112 105 100 94 91 92 91 93 94 96 95 94 93 91 88 85 84 81 81 80 77 76 77 75 74 78 79 79 79 77 72 65 63 63 62 60 59 57 56 57 57 58 57 55 55 54 55 58 63 67 71 74 71 67 63 59 55 56 55 54 57 57 57 59 58 55 55 55 54 51 51 55 55 55 54
169 166 160 154 148 139 135 130 128 121 114 110 104 98 93 93 94 96 98 99 97 94 92 90 87 84 82 78 79 82 81 78 78 77 75 75 76 76 77 77 73 68 64 60 58 56 52 50 48 48 50 52 55 55 58 57 57 57 61 66 72 76 71 67 60 53 49 52 55 54 59 59 56 54 55 55 54 52 53 52 50 53 53 55 56
165 163 161 154 151 144 139 132 129 125 118 115 109 102 95 95 97 97 95 94 92 90 89 88 86 83 79 77 77 81 82 79 79 79 75 72 71 71 73 74 72 68 64 58 54 48 42 40 39 40 43 46 50 53 59 61 61 60 64 67 72 78 74 68 60 53 50 51 52 53 60 62 59 54 52 51 50 48 47 50 51 53 52 52 52
159 159 160 158 152 146 142 137 134 131 124 119 111 103 98 98 97 97 97 93 91 90 88 87 84 80 77 76 75 77 78 77 78 78 77 74 71 71 71 70 69 66 63 56 48 43 39 36 32 32 38 43 48 54 64 68 66 66 70 72 74 78 76 72 63 58 58 56 52 54 59 61 59 53 51 47 43 45 45 45 46 50 54 53 51
150 157 163 161 152 147 145 143 139 138 131 123 113 105 101 99 97 97 99 97 94 93 90 88 86 79 74 72 72 75 77 75 76 77 77 75 73 73 72 71 67 64 59 50 43 41 37 35 34 34 38 45 51 55 67 76 77 75 74 77 78 79 78 75 65 62 63 59 56 60 61 58 54 49 49 47 43 46 47 45 42 42 46 50 51
141 155 166 163 155 148 147 149 144 143 137 129 119 109 106 101 97 97 98 100 99 97 91 90 87 80 75 73 73 73 77 77 76 77 78 73 71 71 71 69 67 64 53 45 43 39 34 33 35 37 43 53 59 59 66 76 84 82 79 82 82 83 80 70 63 65 68 62 58 61 62 55 51 48 47 46 44 46 47 47 44 39 40 44 47
136 151 166 165 160 152 148 154 145 146 144 135 127 115 111 104 101 100 99 101 102 100 92 88 84 82 80 77 74 72 75 77 77 79 81 77 71 67 66 68 68 62 49 45 43 36 33 32 34 39 47 56 64 65 66 72 81 89 90 92 91 90 78 62 64 70 71 66 58 57 59 53 52 52 50 49 46 42 44 49 48 42 41 42 44
127 148 165 165 163 158 154 156 148 149 150 140 133 123 116 107 105 106 105 103 103 105 98 91 86 85 85 81 76 70 71 75 81 84 84 80 75 70 68 70 67 56 45 47 42 36 34 32 35 40 48 57 63 66 66 68 75 88 99 102 99 94 77 66 72 71 68 65 57 56 57 53 55 54 53 54 48 43 45 50 50 45 44 43 45
130 143 155 163 163 164 160 154 152 150 150 145 138 130 124 116 111 114 113 110 108 108 105 101 95 93 92 87 80 72 69 71 81 90 89 82 80 79 75 70 62 53 48 49 43 37 36 34 37 41 49 56 60 63 62 62 70 88 101 106 99 91 81 74 78 72 66 66 62 60 57 54 55 53 52 51 47 48 50 47 45 40 43 46 45
146 145 146 159 156 166 166 156 155 150 150 150 144 137 131 125 118 120 119 116 115 113 109 107 101 99 98 93 86 78 73 71 80 91 94 88 85 87 82 72 63 57 51 49 43 38 36 37 38 43 51 54 57 60 59 60 71 93 103 103 94 87 85 79 82 75 67 70 69 64 57 51 49 50 50 47 48 53 54 49 41 35 41 45 40
153 154 153 158 150 161 169 161 159 152 150 152 148 139 135 129 123 125 121 116 118 117 114 113 107 104 101 95 89 82 74 71 80 91 94 91 88 87 83 73 65 58 49 47 44 39 38 40 40 44 53 54 56 57 58 62 72 96 103 98 89 88 89 81 84 77 66 70 71 65 61 54 47 49 46 40 47 56 58 55 45 40 44 44 38
151 157 155 156 151 156 167 167 163 154 150 153 150 143 143 134 126 130 122 116 116 117 119 119 113 110 108 99 94 87 77 75 81 88 91 91 89 81 73 68 60 55 49 47 44 39 38 41 42 45 54 58 58 59 59 62 73 96 103 98 90 88 89 83 85 80 67 69 69 64 66 62 52 48 39 33 42 49 52 53 46 43 39 35 27
136 143 143 149 151 156 168 173 168 156 150 149 150 145 145 138 131 136 130 123 117 117 123 124 123 122 121 114 106 93 84 82 83 86 88 92 91 79 69 67 59 53 49 46 42 38 37 40 43 44 54 61 63 63 64 66 75 93 103 100 92 86 90 89 86 79 67 66 67 64 66 65 58 46 33 30 35 35 38 41 37 34 29 22 12
126 128 131 137 142 156 171 181 176 160 152 145 149 148 143 144 142 143 139 134 125 124 130 134 137 137 135 131 115 97 91 86 86 90 89 93 93 82 76 72 61 53 48 44 41 37 36 39 43 45 50 60 64 66 68 71 79 92 102 103 96 90 94 96 88 78 69 66 66 66 68 68 62 51 41 38 36 32 31 31 26 25 28 24 17
133 132 130 129 128 148 171 184 182 169 159 151 156 158 152 156 158 153 147 146 136 130 135 142 148 149 146 140 117 99 98 88 84 92 92 96 96 88 84 78 67 56 47 43 39 36 37 39 43 46 50 57 64 68 71 74 82 93 102 104 102 98 100 105 98 86 75 68 65 68 71 66 58 54 51 46 41 34 26 24 24 27 33 34 34
136 140 139 136 128 137 166 182 184 178 172 166 165 162 159 162 167 164 154 155 148 136 138 146 153 153 152 141 115 98 96 93 88 89 92 98 104 99 89 81 70 54 46 44 38 35 36 39 43 47 51 57 63 68 72 76 83 90 96 101 104 102 104 115 115 104 87 75 67 69 74 63 51 51 51 44 39 28 19 24 29 32 39 41 43
136 140 146 145 142 146 162 176 182 187 188 184 177 169 167 166 172 173 163 162 156 150 146 147 155 154 153 144 125 106 96 98 97 94 96 102 115 113 97 86 67 50 46 45 35 32 36 40 45 47 50 57 62 66 70 74 79 83 86 89 91 90 96 113 117 109 97 84 69 67 79 69 55 52 45 32 25 15 16 32 36 38 43 45 45
151 148 150 150 152 154 160 167 176 187 192 191 191 186 179 177 181 178 174 169 163 163 157 151 155 156 155 152 145 131 110 102 97 97 99 107 125 121 102 92 66 51 46 43 32 32 40 44 47 49 51 57 62 64 66 69 71 74 76 77 76 75 78 84 87 81 84 81 62 66 89 81 63 53 40 20 15 15 26 41 42 43 45 44 46
155 160 160 159 155 155 161 166 176 185 189 188 188 194 196 196 192 186 180 174 171 169 164 156 151 158 160 156 158 152 139 121 107 105 110 119 131 131 121 102 73 63 51 43 34 36 46 50 52 53 53 55 58 61 62 62 63 66 67 67 67 67 66 64 62 58 64 68 49 67 101 89 66 53 44 31 28 32 41 45 43 44 44 42 45
123 138 153 166 165 161 163 168 178 182 187 187 183 186 194 200 202 199 187 176 179 176 169 162 154 160 168 167 167 165 161 155 144 132 129 135 135 139 141 127 104 79 57 49 42 44 53 54 53 54 54 54 54 55 56 56 56 58 56 54 57 60 61 59 59 58 59 60 54 71 103 98 70 54 48 44 41 40 42 44 47 45 41 40 42
105 114 131 157 170 174 172 174 181 183 184 186 187 185 188 195 200 205 199 187 184 182 177 173 172 171 178 180 177 181 179 172 166 159 148 143 146 146 145 147 131 93 66 56 51 52 56 54 52 50 50 53 52 50 50 52 52 52 51 46 44 49 55 54 54 54 54 54 56 66 75 84 72 55 49 48 46 42 37 38 45 45 41 37 37
109 122 132 148 164 174 181 185 185 184 183 185 190 186 188 198 201 206 206 199 190 185 182 183 186 183 185 185 184 189 176 163 158 160 159 148 152 156 155 162 145 116 98 67 62 62 60 57 54 49 47 48 48 46 45 45 44 45 48 46 41 43 49 51 50 52 52 50 50 55 60 63 60 51 45 43 46 45 37 34 36 39 40 32 26
112 125 148 165 169 173 182 190 190 189 183 183 186 174 171 195 214 210 199 197 195 189 182 186 193 192 193 191 188 195 180 167 164 163 163 155 159 165 166 169 160 142 127 90 80 78 70 62 57 52 47 44 42 41 41 41 38 38 41 42 41 40 42 47 48 49 50 50 46 46 49 54 53 45 37 32 38 45 46 41 35 32 32 25 15
119 124 162 193 194 189 189 191 193 193 185 177 171 161 157 177 204 200 186 183 186 185 183 188 194 195 196 188 184 194 189 174 176 175 173 172 165 167 177 178 174 162 142 113 104 101 90 76 64 56 48 46 44 39 40 41 40 41 44 41 39 37 35 38 42 45 48 49 47 45 43 44 48 43 34 28 30 40 48 48 41 28 20 18 14
135 164 222 258 237 213 203 199 195 193 188 174 160 154 154 175 181 168 175 174 171 172 176 185 187 198 198 185 184 193 190 176 178 180 182 187 175 172 185 192 189 164 144 125 121 119 111 109 91 65 52 53 52 48 49 50 48 48 51 46 40 39 36 34 37 39 41 43 44 44 43 43 45 44 36 29 26 29 33 39 39 21 7 7 10
136 170 260 292 277 211 190 199 197 193 186 175 161 151 141 166 177 164 168 174 174 169 170 184 183 187 190 186 189 190 184 177 177 179 181 188 184 178 175 183 185 155 142 135 134 132 126 132 118 85 70 67 63 59 55 53 52 52 56 52 44 45 44 39 39 40 37 34 34 36 39 42 46 49 42 32 27 26 24 25 26 14 4 357 358
91 94 17 317 360 94 121 164 187 192 183 173 160 150 145 165 171 169 171 169 171 167 160 164 161 161 170 180 183 176 171 168 175 183 181 181 178 169 153 157 161 145 149 159 163 151 136 138 128 104 85 71 65 61 52 47 49 52 56 55 50 48 49 46 43 42 38 30 29 30 30 34 38 45 46 39 34 30 28 23 16 10 7 360 353
89 75 48 21 63 92 105 124 166 179 171 166 159 153 166 169 161 163 163 158 158 154 146 148 150 153 165 175 177 174 167 161 169 174 168 166 164 162 160 163 164 158 165 184 195 164 145 143 134 113 94 78 65 58 53 46 43 47 52 54 51 47 47 50 47 41 39 36 35 33 29 30 31 33 35 34 33 31 30 27 21 13 4 358 355
78 74 69 59 72 95 101 100 131 153 155 161 165 163 170 164 153 150 151 154 153 147 151 161 163 163 166 172 176 177 170 159 160 161 161 157 155 160 162 167 171 171 177 187 191 169 154 149 137 119 106 95 79 64 61 52 43 43 48 51 48 46 45 47 48 43 41 39 39 37 31 31 31 29 26 21 19 19 19 20 22 16 5 359 360
78 84 83 76 79 97 102 99 114 140 151 158 161 153 154 153 144 140 140 144 144 141 152 156 153 151 147 155 162 164 163 161 157 155 162 154 150 156 156 162 166 166 176 174 164 164 158 147 135 127 117 108 101 88 73 56 48 42 41 48 48 45 43 43 47 48 44 39 35 36 29 27 30 29 26 22 19 18 16 14 14 14 11 12 12
94 95 92 88 88 103 106 107 115 133 150 148 146 144 142 142 139 135 133 130 130 131 137 135 132 126 119 123 127 133 138 142 146 146 155 151 149 151 149 158 157 146 152 151 143 146 146 137 128 124 114 111 109 103 85 57 51 42 32 43 52 51 45 42 47 47 43 40 34 32 27 26 30 29 27 28 29 28 26 22 18 16 15 18 19
109 104 105 105 104 117 118 120 126 136 147 144 143 143 137 139 139 135 131 128 127 126 124 122 122 117 115 117 117 124 130 131 137 139 142 140 137 136 135 137 133 126 129 133 131 126 121 107 104 102 77 107 113 100 90 70 57 42 30 43 56 56 50 47 51 49 43 40 38 37 37 39 39 35 34 35 37 38 35 30 26 23 20 22 24
120 117 121 125 120 129 130 129 134 139 143 143 143 142 137 140 142 138 135 135 136 133 128 124 122 121 120 121 122 126 128 128 130 131 132 131 128 126 121 115 113 117 119 121 122 117 113 102 97 95 74 122 129 105 89 82 71 53 45 56 64 67 60 57 56 52 49 48 49 50 51 51 46 42 40 38 38 38 38 35 30 27 25 26 25
132 132 132 134 128 136 140 135 139 145 142 139 141 141 139 141 145 146 144 143 142 140 136 131 127 125 124 125 128 131 129 127 127 129 130 129 128 124 118 113 111 113 109 106 108 106 113 114 111 117 116 125 130 117 92 83 80 73 67 67 76 82 70 64 62 59 60 59 57 56 54 51 45 42 41 39 37 36 36 34 30 28 29 31 27
142 139 138 140 134 138 147 145 144 151 152 145 143 145 143 139 141 143 142 143 147 145 138 134 131 130 131 132 132 135 134 134 135 136 132 127 127 122 115 114 113 114 110 108 112 110 113 113 110 117 118 114 113 106 92 84 84 79 71 72 83 83 69 65 68 68 66 62 59 58 55 50 45 43 42 39 38 38 38 35 33 30 31 33 30
147 143 144 147 144 139 145 151 147 148 152 151 152 153 145 138 138 137 136 141 144 140 135 134 134 133 134 132 130 131 130 132 134 133 130 126 123 119 114 116 116 113 111 110 110 108 110 106 98 100 105 104 106 105 107 111 99 85 79 83 87 80 73 74 75 72 65 62 63 60 56 52 49 49 47 44 43 44 44 42 40 38 37 38 35
149 148 147 146 149 147 142 148 151 148 147 146 148 149 143 139 137 132 131 136 136 134 134 134 133 132 131 128 127 127 126 128 130 129 128 124 120 117 115 116 117 113 109 105 101 99 101 100 92 88 91 95 101 104 110 110 98 93 94 92 88 82 83 86 80 70 65 67 67 63 59 57 55 52 49 47 46 46 45 44 44 43 42 44 42
149 149 147 144 150 153 147 144 147 147 146 142 137 137 136 134 132 130 134 138 135 132 133 132 130 130 128 126 127 127 127 128 128 130 128 123 121 119 117 118 118 116 111 104 97 93 89 87 85 78 75 82 89 95 105 106 99 99 99 93 91 90 92 92 84 75 70 69 66 64 63 60 56 51 48 46 44 43 41 40 41 42 42 42 42
150 151 152 155 154 154 154 152 150 146 143 140 137 137 135 132 130 132 136 135 132 131 129 127 127 129 127 126 128 126 126 126 126 128 125 123 122 120 120 119 119 117 113 104 94 87 84 82 81 78 76 77 83 93 101 108 105 102 101 96 95 96 96 92 86 81 71 65 62 58 56 55 53 49 45 44 43 40 38 36 36 38 39 39 38
148 147 147 148 144 143 146 148 150 147 141 141 144 142 136 133 133 132 131 128 127 128 126 125 127 129 128 128 129 127 126 126 125 126 125 123 121 120 120 118 120 119 113 105 94 88 87 86 84 81 80 79 84 94 99 111 113 104 101 101 98 98 96 91 86 80 64 56 55 51 46 46 47 44 39 39 40 39 36 34 33 34 36 36 36
146 145 143 139 134 135 138 137 140 143 144 146 146 144 140 139 136 132 129 126 127 129 125 126 129 128 129 131 130 128 129 127 126 126 124 123 121 119 119 118 119 117 111 106 100 94 89 86 84 79 76 73 71 83 105 118 115 103 100 99 96 96 94 89 85 77 62 53 49 46 43 39 39 37 32 31 35 36 34 31 31 33 35 35 34
149 150 147 142 138 139 141 139 141 146 150 153 149 146 147 146 142 137 135 131 130 134 131 129 133 132 131 131 129 129 130 128 127 127 124 123 121 119 117 116 117 114 112 109 106 101 93 87 84 79 76 70 64 71 102 120 114 106 106 100 95 95 89 84 82 77 66 55 44 40 38 34 34 31 22 25 29 30 31 29 27 31 34 35 32
156 156 153 149 147 147 148 149 152 154 155 156 152 148 148 151 152 146 144 138 132 136 136 133 136 135 132 130 129 130 130 127 126 125 122 119 117 114 113 114 116 116 114 110 105 100 93 87 84 82 81 76 68 65 76 99 114 121 115 104 101 99 85 67 62 68 63 49 39 32 26 24 27 25 17 18 21 21 25 27 25 27 30 32 29
164 162 161 159 156 155 158 159 162 163 161 161 160 158 155 155 154 147 145 142 133 134 135 132 134 134 129 128 128 128 128 125 123 120 116 113 111 109 110 110 111 113 112 108 102 97 93 89 84 84 82 81 75 66 64 72 88 110 116 117 83 69 86 11 8 46 57 42 37 30 20 12 15 20 14 10 12 13 17 23 23 24 24 25 23
170 169 167 165 163 161 163 165 169 171 171 171 169 166 160 151 145 140 138 136 131 133 132 128 129 129 127 126 126 127 126 122 119 116 114 112 111 111 110 109 108 107 105 102 99 96 94 90 86 83 81 82 83 76 69 64 67 73 73 83 56 43 209 321 341 352 18 26 31 27 17 7 8 16 10 1 3 5 8 16 19 20 20 17 13
173 172 170 169 167 166 167 168 171 174 175 176 174 170 163 153 148 143 138 134 131 132 132 128 127 127 125 125 124 125 124 121 120 118 116 115 114 113 111 109 107 104 102 100 99 96 93 90 87 84 82 83 85 83 79 72 71 70 71 78 73 80 68 338 1 328 335 2 15 13 6 0 5 13 6 356 356 359 2 7 9 13 13 10 3
172 172 172 172 171 170 171 171 173 175 176 176 174 170 163 158 155 149 143 140 134 131 132 130 128 127 125 125 126 125 125 124 122 120 119 117 116 114 111 109 106 104 103 101 98 96 94 92 88 86 84 81 81 83 82 79 78 75 78 84 83 86 68 41 67 344 320 325 344 353 353 354 1 4 360 357 355 356 360 3 1 1 2 2 358
172 172 173 173 174 173 172 174 175 175 176 174 172 169 165 160 157 150 144 142 137 133 133 131 130 130 129 129 129 128 127 125 123 122 120 118 116 114 112 109 107 105 103 100 99 97 95 93 89 86 84 80 77 80 81 78 76 74 77 83 81 81 74 64 56 24 339 289 324 339 342 345 354 358 358 357 355 355 357 358 353 348 348 351 350
175 173 173 173 174 172 170 171 172 172 172 170 167 167 167 163 157 150 143 140 138 135 135 134 134 135 133 132 131 130 128 126 124 123 121 119 117 114 112 109 107 106 103 102 102 100 97 94 89 85 82 81 78 77 79 77 75 75 69 67 67 63 61 55 26 16 18 291 303 315 328 337 345 351 357 354 354 1 356 350 347 343 340 341 344
177 175 173 172 171 169 166 164 164 166 165 165 164 164 167 164 157 152 145 141 139 138 137 137 137 138 135 133 132 131 129 128 126 125 123 121 118 116 113 110 108 107 106 105 104 100 97 93 90 87 84 83 81 77 78 77 73 73 66 59 55 48 41 22 6 7 4 325 303 306 316 327 328 333 347 349 352 0 354 352 353 346 339 341 343
178 175 172 171 170 168 165 162 162 164 164 166 169 169 169 166 160 155 149 146 144 143 142 141 141 140 137 135 135 133 132 131 129 127 125 123 121 118 115 113 111 110 108 106 104 101 98 95 92 90 87 84 82 79 78 78 73 68 63 59 61 61 55 31 358 355 350 324 315 303 310 321 316 311 329 342 348 352 353 0 353 342 332 330 333